San Luis Obispo, CA

9:07 PM PST on December 10, 2016 (GMT -0800)
San Luis Obispo County-McChesney

Weather History for KSBP - August, 2013

Change the Weather History Date:

Friday, August 2, 2013

  Actual Average Record
Temperature  
Mean Temperature 61 °F -  
Max Temperature 73 °F 81 °F 101 °F (1993)
Min Temperature 50 °F 53 °F 46 °F (1956)
Degree Days  
Heating Degree Days 4    
Growing Degree Days 11 (Base 50)    
Moisture  
Dew Point 52 °F    
Average Humidity 81    
Maximum Humidity 100    
Minimum Humidity 51    
Precipitation  
Precipitation 0.00 in - - ()
Sea Level Pressure  
Sea Level Pressure 29.96 in    
Wind  
Wind Speed 5 mph (NW)    
Max Wind Speed 21 mph    
Max Gust Speed -    
Visibility 9 miles    
Events      
Averages and records for this station are not official NWS values.
T = Trace of Precipitation, MM = Missing Value Source: NWS Daily Summary

Daily Weather History Graph

Daily Weather History Graph

Search for Another Location

Airport or City:

Trip Planner

Search our weather history database for the weather conditions in past years. The results will help you decide how hot, cold, wet, or windy it might be!

Date:

Astronomy

Aug. 02, 2013 Rise Set
Actual Time 6:12 AM PDT 8:04 PM PDT
Civil Twilight 5:44 AM PDT 8:32 PM PDT
Nautical Twilight 5:11 AM PDT 9:05 PM PDT
Astronomical Twilight 4:35 AM PDT 9:41 PM PDT
Moon 2:39 AM PDT (8/2) 5:04 PM PDT (8/2)
Length of Visible Light 14h 47m
Length of Day
13h 52m
Waning Crescent, 15% of the Moon is Illuminated
Aug 2
Waning Crescent
Aug 6
New
Aug 14
First Quarter
Aug 20
Full
Aug 28
Last Quarter

Hourly Weather History & Observations

Time (PDT) Temp. Dew Point Humidity Pressure Visibility Wind Dir Wind Speed Gust Speed Precip Events Conditions
12:56 AM 54.0 °F 51.1 °F 90% 29.95 in 10.0 mi SSE 3.5 mph - N/A   Clear
1:56 AM 53.1 °F 50.0 °F 89% 29.94 in 10.0 mi ESE 5.8 mph - N/A   Clear
2:56 AM 53.1 °F 50.0 °F 89% 29.94 in 10.0 mi East 3.5 mph - N/A   Clear
3:56 AM 51.1 °F 48.0 °F 89% 29.94 in 10.0 mi ESE 4.6 mph - N/A   Clear
4:56 AM 51.1 °F 48.9 °F 92% 29.94 in 10.0 mi Calm Calm - N/A   Clear
5:36 AM 50.0 °F 46.4 °F 87% 29.95 in 10.0 mi Calm Calm - N/A   Scattered Clouds
5:44 AM 51.8 °F 48.2 °F 88% 29.95 in 10.0 mi Calm Calm - N/A   Mostly Cloudy
5:56 AM 52.0 °F 48.9 °F 89% 29.96 in 6.0 mi Calm Calm - N/A   Overcast
6:16 AM 51.8 °F 51.8 °F 100% 29.96 in 2.0 mi Calm Calm - N/A   Overcast
6:27 AM 53.6 °F 51.8 °F 94% 29.97 in 8.0 mi Calm Calm - N/A   Overcast
6:56 AM 53.1 °F 51.1 °F 93% 29.97 in 6.0 mi Calm Calm - N/A   Overcast
7:25 AM 53.6 °F 51.8 °F 94% 29.97 in 2.0 mi Calm Calm - N/A   Overcast
7:56 AM 54.0 °F 52.0 °F 93% 29.98 in 2.0 mi Calm Calm - N/A   Overcast
8:20 AM 53.6 °F 51.8 °F 94% 29.99 in 4.0 mi Calm Calm - N/A   Overcast
8:56 AM 55.0 °F 53.1 °F 93% 29.99 in 7.0 mi SSE 3.5 mph - N/A   Overcast
9:56 AM 59.0 °F 54.0 °F 83% 29.98 in 10.0 mi Variable 4.6 mph - N/A   Mostly Cloudy
10:21 AM 60.8 °F 53.6 °F 77% 29.99 in 10.0 mi ESE 3.5 mph - N/A   Scattered Clouds
10:56 AM 64.9 °F 53.1 °F 65% 29.98 in 10.0 mi Calm Calm - N/A   Scattered Clouds
11:56 AM 72.0 °F 54.0 °F 53% 29.96 in 10.0 mi WNW 11.5 mph - N/A   Clear
12:56 PM 71.1 °F 54.0 °F 55% 29.96 in 10.0 mi WNW 15.0 mph - N/A   Clear
1:56 PM 72.0 °F 53.1 °F 51% 29.95 in 10.0 mi NW 17.3 mph - N/A   Clear
2:56 PM 70.0 °F 53.1 °F 55% 29.94 in 10.0 mi NW 20.7 mph - N/A   Clear
3:56 PM 70.0 °F 53.1 °F 55% 29.93 in 10.0 mi NW 19.6 mph - N/A   Clear
4:56 PM 68.0 °F 53.1 °F 59% 29.93 in 10.0 mi NW 18.4 mph - N/A   Clear
5:56 PM 66.0 °F 53.1 °F 63% 29.93 in 10.0 mi NW 17.3 mph - N/A   Clear
6:56 PM 61.0 °F 53.1 °F 75% 29.94 in 10.0 mi NW 18.4 mph - N/A   Clear
7:56 PM 57.0 °F 52.0 °F 83% 29.95 in 10.0 mi NW 11.5 mph - N/A   Clear
8:56 PM 55.0 °F 52.0 °F 89% 29.96 in 10.0 mi NW 8.1 mph - N/A   Clear
9:43 PM 55.4 °F 51.8 °F 88% 29.98 in 10.0 mi NW 11.5 mph - N/A   Partly Cloudy
9:52 PM 55.4 °F 51.8 °F 88% 29.98 in 10.0 mi NW 9.2 mph - N/A   Mostly Cloudy
9:56 PM 55.0 °F 53.1 °F 93% 29.98 in 10.0 mi NW 9.2 mph - N/A   Mostly Cloudy
10:56 PM 55.0 °F 53.1 °F 93% 29.98 in 10.0 mi WNW 8.1 mph - N/A   Overcast
11:56 PM 55.9 °F 53.1 °F 90% 29.98 in 10.0 mi NW 5.8 mph - N/A   Overcast